| time (UTC) | temp F | wind direction | speed MPH | gust MPH | rain 1hr in | rain 24hr in | rain mn in | humidity % | barometer mb |
| 20260902090105 | 66 | 0.0 | 0.0 | 0.00 | 0.01 | 0.00 | 81 | 1015.5 | |
| 20260902084603 | 65 | 0.0 | 0.0 | 0.00 | 0.01 | 0.00 | 84 | 1015.5 | |
| 20260902083059 | 64 | 0.0 | 0.0 | 0.00 | 0.01 | 0.00 | 85 | 1015.6 | |
| 20260902081613 | 63 | 0.0 | 0.0 | 0.00 | 0.01 | 0.00 | 86 | 1015.5 | |
| 20260902080058 | 63 | 0.0 | 0.0 | 0.00 | 0.01 | 0.00 | 88 | 1015.6 | |
| 20260902074601 | 62 | 0.0 | 0.0 | 0.00 | 0.01 | 0.00 | 89 | 1015.6 | |
| 20260902073059 | 61 | 0.0 | 0.0 | 0.00 | 0.01 | 0.00 | 90 | 1015.3 | |
| 20260902071604 | 61 | 0.0 | 0.0 | 0.00 | 0.01 | 0.00 | 91 | 1015.3 | |
| 20260902070106 | 61 | 0.0 | 0.0 | 0.00 | 0.01 | 0.00 | 92 | 1015.4 | |
| 20260902064618 | 60 | 0.0 | 0.0 | 0.00 | 0.01 | 0.00 | 93 | 1015.3 | |
| 20260902063100 | 59 | 0.0 | 0.0 | 0.00 | 0.01 | 0.00 | 93 | 1015.4 | |
| 20260902061559 | 59 | 0.0 | 0.0 | 0.00 | 0.01 | 0.00 | 93 | 1015.3 | |
| 20260902060110 | 58 | 0.0 | 0.0 | 0.00 | 0.01 | 0.00 | 94 | 1015.3 | |
| 20260902054602 | 58 | 0.0 | 0.0 | 0.00 | 0.01 | 0.00 | 95 | 1015.3 | |
| 20260902053055 | 57 | 0.0 | 0.0 | 0.00 | 0.01 | 0.00 | 95 | 1015.3 | |
| 20260902051559 | 57 | 0.0 | 0.0 | 0.00 | 0.01 | 0.00 | 95 | 1015.4 | |
| 20260902050111 | 56 | 0.0 | 0.0 | 0.00 | 0.01 | 0.00 | 95 | 1015.3 | |
| 20260902044610 | 55 | 0.0 | 0.0 | 0.00 | 0.01 | 0.00 | 95 | 1015.3 | |
| 20260902043110 | 55 | 0.0 | 0.0 | 0.00 | 0.01 | 0.00 | 95 | 1015.3 | |
| 20260902041601 | 54 | 0.0 | 0.0 | 0.00 | 0.01 | 0.00 | 94 | 1015.3 | |
| 20260902040111 | 54 | 0.0 | 0.0 | 0.00 | 0.01 | 0.00 | 94 | 1015.4 | |
| 20260902034607 | 54 | 0.0 | 0.0 | 0.00 | 0.01 | 0.00 | 94 | 1015.5 | |
| 20260902033107 | 55 | 0.0 | 0.0 | 0.00 | 0.01 | 0.00 | 94 | 1015.5 | |
| 20260902031603 | 55 | 0.0 | 0.0 | 0.00 | 0.01 | 0.00 | 94 | 1015.5 | |
| 20260902030058 | 55 | 0.0 | 0.0 | 0.00 | 0.01 | 0.00 | 93 | 1015.5 | |
| 20260902024609 | 55 | 0.0 | 0.0 | 0.00 | 0.01 | 0.00 | 93 | 1015.3 | |
| 20260902023106 | 55 | 0.0 | 0.0 | 0.00 | 0.01 | 0.00 | 93 | 1015.5 | |
| 20260902021603 | 55 | 0.0 | 0.0 | 0.00 | 0.01 | 0.00 | 93 | 1015.3 | |
| 20260902020107 | 55 | 0.0 | 0.0 | 0.00 | 0.01 | 0.00 | 93 | 1015.5 | |
| 20260902014603 | 55 | 0.0 | 0.0 | 0.00 | 0.01 | 0.00 | 92 | 1015.4 | |
| 20260902013100 | 56 | 0.0 | 0.0 | 0.00 | 0.01 | 0.00 | 92 | 1015.2 | |
| 20260902011603 | 56 | 0.0 | 0.0 | 0.00 | 0.01 | 0.00 | 91 | 1015.2 | |
| 20260902010101 | 56 | 0.0 | 0.0 | 0.00 | 0.01 | 0.00 | 91 | 1015.4 | |
| 20260902004604 | 57 | 0.0 | 0.0 | 0.00 | 0.01 | 0.00 | 91 | 1015.4 | |
| 20260902003104 | 57 | 0.0 | 0.0 | 0.00 | 0.01 | 0.00 | 91 | 1015.3 | |
| 20260902001600 | 57 | 0.0 | 0.0 | 0.00 | 0.01 | 0.00 | 91 | 1015.3 | |
| 20260901234602 | 58 | 0.0 | 0.0 | 0.00 | 0.01 | 0.00 | 92 | 1015.5 | |
| 20260901233102 | 58 | 0.0 | 0.0 | 0.00 | 0.01 | 0.00 | 93 | 1015.4 | |
| 20260901231557 | 58 | 0.0 | 0.0 | 0.00 | 0.01 | 0.00 | 93 | 1015.2 | |
| 20260901224602 | 59 | 0.0 | 0.0 | 0.00 | 0.01 | 0.00 | 92 | 1015.0 | |
| 20260901223102 | 59 | 0.0 | 0.0 | 0.00 | 0.01 | 0.00 | 92 | 1015.1 | |
| 20260901221603 | 60 | 0.0 | 0.0 | 0.00 | 0.01 | 0.00 | 92 | 1015.1 | |
| 20260901220105 | 60 | 0.0 | 0.0 | 0.00 | 0.01 | 0.00 | 92 | 1015.0 | |
| 20260901214610 | 60 | 0.0 | 0.0 | 0.00 | 0.01 | 0.01 | 92 | 1015.0 | |
| 20260901213115 | 60 | 0.0 | 0.0 | 0.00 | 0.01 | 0.01 | 92 | 1015.0 | |
| 20260901211601 | 60 | 0.0 | 0.0 | 0.00 | 0.01 | 0.01 | 91 | 1014.8 | |
| 20260901210105 | 60 | 0.0 | 0.0 | 0.00 | 0.01 | 0.01 | 90 | 1014.7 | |
| 20260901204558 | 61 | 0.0 | 0.0 | 0.00 | 0.01 | 0.01 | 90 | 1014.8 | |
| 20260901203113 | 61 | 0.0 | 0.0 | 0.00 | 0.01 | 0.01 | 89 | 1014.7 | |
| 20260901201604 | 61 | 0.0 | 0.0 | 0.00 | 0.01 | 0.01 | 89 | 1014.6 | |
| 20260901200100 | 61 | 0.0 | 0.0 | 0.00 | 0.01 | 0.01 | 89 | 1014.5 | |
| 20260901194601 | 61 | 0.0 | 0.0 | 0.00 | 0.01 | 0.01 | 88 | 1014.4 | |
| 20260901193127 | 62 | 0.0 | 0.0 | 0.00 | 0.01 | 0.01 | 88 | 1014.3 | |
| 20260901191600 | 62 | 0.0 | 0.0 | 0.00 | 0.01 | 0.01 | 88 | 1014.2 | |
| 20260901190106 | 62 | 0.0 | 0.0 | 0.00 | 0.01 | 0.01 | 88 | 1014.0 | |
| 20260901184556 | 63 | 0.0 | 0.0 | 0.00 | 0.01 | 0.01 | 88 | 1013.9 | |
| 20260901183058 | 63 | 0.0 | 0.0 | 0.00 | 0.01 | 0.01 | 87 | 1013.7 | |
| 20260901181605 | 63 | 0.0 | 0.0 | 0.00 | 0.01 | 0.01 | 86 | 1013.6 | |
| 20260901180103 | 64 | 0.0 | 0.0 | 0.00 | 0.01 | 0.01 | 85 | 1013.5 | |
| 20260901174607 | 64 | 0.0 | 0.0 | 0.00 | 0.01 | 0.01 | 85 | 1013.5 | |
| 20260901173102 | 64 | 0.0 | 0.0 | 0.00 | 0.01 | 0.01 | 85 | 1013.4 | |
| 20260901171615 | 65 | 0.0 | 0.0 | 0.00 | 0.01 | 0.01 | 86 | 1013.2 | |
| 20260901170109 | 65 | 0.0 | 0.0 | 0.00 | 0.01 | 0.01 | 86 | 1013.1 | |
| 20260901164603 | 65 | 0.0 | 0.0 | 0.00 | 0.01 | 0.01 | 87 | 1013.1 | |
| 20260901163056 | 65 | 0.0 | 0.0 | 0.00 | 0.01 | 0.01 | 88 | 1013.2 | |
| 20260901161604 | 65 | 0.0 | 0.0 | 0.01 | 0.01 | 0.01 | 88 | 1013.2 | |
| 20260901160106 | 64 | 0.0 | 0.0 | 0.01 | 0.01 | 0.01 | 88 | 1013.3 | |
| 20260901154606 | 64 | 0.0 | 0.0 | 0.01 | 0.03 | 0.01 | 87 | 1013.2 | |
| 20260901153103 | 65 | 0.0 | 0.0 | 0.00 | 0.03 | 0.00 | 84 | 1013.2 | |
| 20260901151602 | 68 | 0.0 | 0.0 | 0.00 | 0.02 | 0.00 | 76 | 1013.0 | |
| 20260901150109 | 69 | 0.0 | 0.0 | 0.00 | 0.02 | 0.00 | 71 | 1012.9 | |
| 20260901144559 | 69 | 0.0 | 0.0 | 0.00 | 0.03 | 0.00 | 70 | 1012.8 | |
| 20260901143112 | 69 | 0.0 | 0.0 | 0.00 | 0.03 | 0.00 | 71 | 1012.6 | |
| 20260901141604 | 69 | 0.0 | 0.0 | 0.00 | 0.03 | 0.00 | 70 | 1012.7 | |
| 20260901134627 | 69 | 0.0 | 0.0 | 0.00 | 0.03 | 0.00 | 72 | 1012.7 | |
| 20260901133103 | 70 | 0.0 | 0.0 | 0.00 | 0.03 | 0.00 | 71 | 1012.6 | |
| 20260901131606 | 70 | 0.0 | 0.0 | 0.00 | 0.03 | 0.00 | 74 | 1012.7 | |
| 20260901130105 | 70 | 0.0 | 0.0 | 0.00 | 0.03 | 0.00 | 74 | 1012.5 | |
| 20260901124601 | 69 | 0.0 | 0.0 | 0.00 | 0.03 | 0.00 | 76 | 1012.4 | |
| 20260901123055 | 69 | 0.0 | 0.0 | 0.00 | 0.03 | 0.00 | 77 | 1012.5 | |
| 20260901121609 | 69 | 0.0 | 0.0 | 0.00 | 0.03 | 0.00 | 77 | 1012.6 | |
| 20260901120104 | 67 | 0.0 | 0.0 | 0.00 | 0.03 | 0.00 | 81 | 1012.7 | |
| 20260901114602 | 67 | 0.0 | 0.0 | 0.00 | 0.03 | 0.00 | 80 | 1012.7 | |
| 20260901113109 | 67 | 0.0 | 0.0 | 0.00 | 0.03 | 0.00 | 78 | 1012.5 | |
| 20260901111604 | 67 | 0.0 | 0.0 | 0.00 | 0.03 | 0.00 | 78 | 1012.4 | |
| 20260901110059 | 68 | 0.0 | 0.0 | 0.00 | 0.03 | 0.00 | 79 | 1012.3 | |
| 20260901104601 | 67 | 0.0 | 0.0 | 0.00 | 0.03 | 0.00 | 78 | 1012.3 | |
| 20260901103105 | 68 | 0.0 | 0.0 | 0.00 | 0.03 | 0.00 | 79 | 1012.2 | |
| 20260901101604 | 67 | 0.0 | 0.0 | 0.00 | 0.03 | 0.00 | 80 | 1012.2 | |
| 20260901100057 | 68 | 0.0 | 0.0 | 0.00 | 0.03 | 0.00 | 79 | 1012.0 | |
| 20260901094600 | 66 | 0.0 | 0.0 | 0.00 | 0.03 | 0.00 | 83 | 1012.0 | |
| 20260901093058 | 67 | 0.0 | 0.0 | 0.00 | 0.03 | 0.00 | 81 | 1011.8 | |
| 20260901091602 | 67 | 0.0 | 0.0 | 0.00 | 0.03 | 0.00 | 79 | 1011.7 |